Regional Weather Roundup
Issued by NWS Goodland, KS

Current Version | Previous Version | Text Only | Print | Product List | Glossary On
Versions: 1 2 3 4 5 6 7 8 9 10 11 12 13 14 15 16 17 18 19 20 21 22 23 24 25 26 27 28 29 30 31 32 33 34 35 36 37 38 39 40 41 42 43 44 45 46 47 48 49 50
000
ASUS43 KGLD 231959
RWRGLD

GOODLAND FORECAST AREA HOURLY WEATHER ROUNDUP
NATIONAL WEATHER SERVICE GOODLAND KS
200 PM MDT SAT AUG 23 2014

...OFFICIAL OBSERVATIONS...

CITY           SKY/WX    TMP DP  RH WIND       PRES   REMARKS
GOODLAND KS    MOSUNNY   82  60  47 S7        29.86F
HILL CITY KS   PTSUNNY   91  61  36 S18G28    29.79F
IMPERIAL NEB   PTSUNNY   80  61  52 S8        29.83F
MCCOOK NEB     MOSUNNY   83  66  56 SW9       29.81F
AKRON CO       CLOUDY    77  59  53 NE5       29.91F
BURLINGTON CO  SUNNY     82  56  40 SW12      29.89F
LIMON CO       SUNNY     79  51  37 SE7       29.94F
$$

...UNOFFICIAL OBSERVATIONS...

CITY           SKY/WX    TMP DP  RH WIND       PRES   REMARKS
COLBY KS       SUNNY     84  68  58 S5        29.85F
NORTON KS      SUNNY     90  57  33 SE12      29.78F
SHARON SPRINGS   N/A     89  57  33 SW13G22     N/A
WAKEENEY KS      N/A     92  53  26 MISG        N/A
KIT CARSON CO    N/A     82  56  41 MISG        N/A
YUMA CO          N/A     77  62  58 CALM        N/A
$$



USA.gov is the U.S. government's official web portal to all federal, state and local government web resources and services.